This is the latest recevied weather packets stored in our database for station/object OK1FET-5. If no packets are shown the sender has not sent any weather packets the latest 10 day(s).
| Time | Temp. | Humidity | Pressure | Rain* | Wind** | Luminosity | Snow |
|---|---|---|---|---|---|---|---|
| 1788146409 | 62° F | 68% | 761.8 mmHg | - | - | - | - |
| 1788145813 | 62° F | 70% | 761.8 mmHg | - | - | - | - |
| 1788144621 | 61° F | 72% | 761.8 mmHg | - | - | - | - |
| 1788144026 | 62° F | 73% | 762 mmHg | - | - | - | - |
| 1788143430 | 62° F | 67% | 762 mmHg | - | - | - | - |
| 1788142834 | 62° F | 67% | 762 mmHg | - | - | - | - |
| 1788142238 | 62° F | 67% | 762.1 mmHg | - | - | - | - |
| 1788141643 | 62° F | 67% | 762.1 mmHg | - | - | - | - |
| 1788141047 | 62° F | 67% | 762.1 mmHg | - | - | - | - |
| 1788140451 | 62° F | 67% | 762.2 mmHg | - | - | - | - |
| 1788139856 | 62° F | 66% | 762.2 mmHg | - | - | - | - |
| 1788139260 | 63° F | 66% | 762.1 mmHg | - | - | - | - |
| 1788138664 | 63° F | 66% | 762.3 mmHg | - | - | - | - |
| 1788138068 | 64° F | 66% | 762.2 mmHg | - | - | - | - |
| 1788137472 | 64° F | 65% | 762.3 mmHg | - | - | - | - |
| 1788136877 | 64° F | 64% | 762.4 mmHg | - | - | - | - |
| 1788136281 | 65° F | 64% | 762.4 mmHg | - | - | - | - |
| 1788135685 | 65° F | 64% | 762.4 mmHg | - | - | - | - |
| 1788135090 | 65° F | 64% | 762.4 mmHg | - | - | - | - |
| 1788134494 | 65° F | 64% | 762.3 mmHg | - | - | - | - |
| 1788133898 | 64° F | 65% | 762.3 mmHg | - | - | - | - |
| 1788133303 | 64° F | 64% | 762.3 mmHg | - | - | - | - |
| 1788132706 | 64° F | 64% | 762.3 mmHg | - | - | - | - |
| 1788132111 | 64° F | 62% | 762.4 mmHg | - | - | - | - |
| 1788131515 | 65° F | 62% | 762.4 mmHg | - | - | - | - |
* Rain since midnight (hover to see other rain measurements)
** Current wind speed in m/s (hover to see current wind gust speed)